FW4468 Weather Reports


time (UTC)temp
C
wind
direction
speed
KPH
gust
KPH
rain 1hr
cm
rain 24hr
cm
rain mn
cm
humidity
%
barometer
mb
20260503000043 23 236 1.6 12.9 0.00 0.00 0.00 33 1012.6
20260502234543 23 195 4.8 19.3 0.00 0.00 0.00 32 1012.7
20260502233037 23 21 1.6 17.7 0.00 0.00 0.00 32 1012.9
20260502231536 23 239 4.8 19.3 0.00 0.00 0.00 33 1013.0
20260502230036 23 9 4.8 19.3 0.00 0.00 0.00 34 1013.3
20260502224533 23 277 3.2 16.1 0.00 0.00 0.00 35 1013.7
20260502223028 23 355 3.2 19.3 0.00 0.00 0.00 35 1013.8
20260502221526 23 112 6.4 19.3 0.00 0.00 0.00 34 1014.0
20260502220028 23 355 6.4 24.1 0.00 0.00 0.00 35 1014.1
20260502214523 22 283 3.2 22.5 0.00 0.00 0.00 38 1014.3
20260502213021 22 128 4.8 22.5 0.00 0.00 0.00 36 1014.5
20260502211519 22 61 4.8 19.3 0.00 0.00 0.00 38 1014.6
20260502210015 22 59 3.2 16.1 0.00 0.00 0.00 40 1014.8
20260502204514 22 5 6.4 16.1 0.00 0.00 0.00 40 1014.9
20260502203010 21 55 4.8 16.1 0.00 0.00 0.00 42 1015.0
20260502201509 21 55 3.2 16.1 0.00 0.00 0.00 41 1015.2
20260502200009 21 58 6.4 16.1 0.00 0.00 0.00 41 1015.3
20260502194508 21 147 4.8 19.3 0.00 0.00 0.00 42 1015.3
20260502193007 21 337 6.4 20.9 0.00 0.00 0.00 43 1015.3
20260502191502 20 207 6.4 20.9 0.00 0.00 0.00 46 1015.4
20260502190111 20 88 3.2 12.9 0.00 0.00 0.00 45 1015.4
20260502184602 19 86 4.8 19.3 0.00 0.00 0.00 48 1015.6
20260502183110 18 132 4.8 17.7 0.00 0.00 0.00 49 1015.7
20260502181552 18 33 4.8 17.7 0.00 0.00 0.00 51 1015.7
20260502163040 15 49 4.8 16.1 0.00 0.00 0.00 58 1016.0
20260502161533 15 268 6.4 17.7 0.00 0.00 0.00 60 1016.1
20260502151522 11 336 1.6 4.8 0.00 0.00 0.00 68 1016.1
20260502123016 9 137 0.0 0.0 0.00 0.00 0.00 70 1015.9
20260502121514 10 137 0.0 1.6 0.00 0.00 0.00 70 1016.2
20260502114510 10 137 0.0 6.4 0.00 0.00 0.00 70 1016.4
20260502113007 10 176 0.0 4.8 0.00 0.00 0.00 70 1016.8
20260502111515 9 269 0.0 1.6 0.00 0.00 0.00 69 1016.6
20260502110007 9 270 0.0 1.6 0.00 0.00 0.00 69 1016.2
20260502104504 9 269 0.0 0.0 0.00 0.00 0.00 68 1016.0
20260502103002 9 269 0.0 0.0 0.00 0.00 0.00 68 1016.1
20260502101559 10 270 0.0 0.0 0.00 0.00 0.00 67 1016.2
20260502090106 10 269 0.0 0.0 0.00 0.00 0.00 67 1016.3
20260502070037 12 269 0.0 0.0 0.00 0.00 0.00 62 1015.9
20260502064535 12 269 0.0 0.0 0.00 0.00 0.00 62 1015.7
20260502063035 12 269 0.0 0.0 0.00 0.00 0.00 61 1015.7
20260502061534 13 269 0.0 1.6 0.00 0.00 0.00 62 1016.0
20260502060034 13 269 0.0 1.6 0.00 0.00 0.00 61 1015.6
20260502054534 13 269 0.0 1.6 0.00 0.00 0.00 60 1015.5
20260502053034 13 269 0.0 1.6 0.00 0.00 0.00 58 1015.5
20260502051540 14 271 0.0 3.2 0.00 0.00 0.00 57 1015.4
20260502050037 14 271 0.0 3.2 0.00 0.00 0.00 57 1015.2
20260502044536 14 271 0.0 3.2 0.00 0.00 0.00 57 1015.1
20260502043030 14 270 0.0 1.6 0.00 0.00 0.00 57 1014.9
20260502041545 15 311 0.0 4.8 0.00 0.00 0.00 57 1014.7
20260502040030 15 115 0.0 3.2 0.00 0.00 0.00 54 1014.6
20260502034529 16 116 0.0 1.6 0.00 0.00 0.00 51 1014.4
20260502033028 16 116 0.0 3.2 0.00 0.00 0.00 49 1014.0
20260502031527 16 116 0.0 3.2 0.00 0.00 0.00 49 1013.9
20260502030027 16 115 0.0 4.8 0.00 0.00 0.00 48 1013.7
20260502024526 17 69 0.0 6.4 0.00 0.00 0.00 48 1013.6
20260502023025 17 124 1.6 6.4 0.00 0.00 0.00 44 1013.3
20260502021524 18 85 3.2 9.7 0.00 0.00 0.00 42 1013.3
20260502020024 19 76 1.6 9.7 0.00 0.00 0.00 40 1013.4
20260502014527 20 160 3.2 16.1 0.00 0.00 0.00 41 1013.4
20260502013022 20 157 4.8 14.5 0.00 0.00 0.00 43 1013.4
20260502011521 20 279 4.8 12.9 0.00 0.00 0.00 42 1013.5
20260502010023 20 171 4.8 9.7 0.00 0.00 0.00 39 1013.6
20260502004518 20 61 3.2 12.9 0.00 0.00 0.00 40 1013.6
20260502003017 21 105 4.8 14.5 0.00 0.00 0.00 40 1013.5
20260502001515 21 323 3.2 16.1 0.00 0.00 0.00 40 1013.7